Location: Unspecified
(0.0000°N, 0.0000°E)
Time: 13:44:28
(UTC+00:00)

Vanguard 2 Rocket - Pass Details

Date: 25 November 2019
Orbit: 554 x 3326 km, 32.9° (Epoch: 08 December)

Event Time Altitude Azimuth Distance (km) Brightness Sun altitude
Rises 12:26:28 0° 238° (WSW) 6,900 11.6 67.1°
Reaches altitude 10° 12:33:43 10° 221° (SW) 6,167 11.6 66.3°
Maximum altitude 12:45:56 19° 183° (S) 5,545 11.5 64.7°
Drops below altitude 10° 12:57:40 10° 145° (SE) 5,894 11.3 63.0°
Sets 13:04:19 0° 128° (SE) 6,503 11.2 61.9°
